Regional Weather Roundup
Issued by NWS

Home | Current Version | Previous Version | Text Only | Print | Product List | Glossary On
Versions: 1 2 3 4 5 6 7 8 9 10 11 12 13 14 15 16 17 18 19 20 21 22 23 24 25 26 27 28 29 30 31 32 33 34 35 36 37 38 39 40 41 42 43 44 45 46 47 48 49 50
000
ASUS43 KTOP 011259
RWRKS

WEATHER ROUNDUP FOR KANSAS
NATIONAL WEATHER SERVICE GOODLAND KS
800 AM CDT SAT OCT 01 2016

NOTE:  "FAIR" INDICATES FEW OR NO CLOUDS BELOW 12,000 FEET WITH NO
SIGNIFICANT WEATHER AND/OR OBSTRUCTIONS TO VISIBILITY.

KSZ001>006-013>018-027>032-041>047-011400-
NORTHWEST KANSAS

CITY           SKY/WX    TMP DP  RH WIND       PRES   REMARKS
GOODLAND       CLOUDY    46  42  86 CALM      30.12R
HAYS           CLEAR     45  36  70 CALM      30.13R
HILL CITY      CLEAR     44  42  93 CALM      30.14R
RUSSELL        CLEAR     50  47  89 S6        30.11R
$$

KSZ061>065-074>080-084>089-011400-
SOUTHWEST KANSAS

CITY           SKY/WX    TMP DP  RH WIND       PRES   REMARKS
DODGE CITY     CLOUDY    57  47  69 SE12      30.10S
ELKHART          N/A     58  48  69 W6          N/A
GARDEN CITY    CLEAR     53  46  77 SE10      30.08R
GREAT BEND     PTCLDY    54  43  66 CALM      30.12S
LIBERAL        CLEAR     55  45  67 SE6       30.08S
$$

KSZ066>073-081>083-090>101-011400-
SOUTHEAST KANSAS

CITY           SKY/WX    TMP DP  RH WIND       PRES   REMARKS
CHANUTE        CLEAR     50  49  96 CALM      30.12R
COFFEYVILLE    PTCLDY    51  51 100 CALM      30.12R
HUTCHINSON     PTCLDY    50  49  96 NE3       30.12S
MEDICINE LODGE   N/A     58  49  72 E6        30.11S
NEWTON         PTCLDY    52  49  89 E5        30.13R
PARSONS        PTCLDY    49  47  93 CALM      30.13R
WICHITA INTL   CLOUDY    57  51  80 E3        30.11S
WICHITA JABRA  CLOUDY    53  51  93 CALM      30.12R
WINFIELD       MOCLDY    55  50  83 E3        30.12S
$$

KSZ007>012-019>026-033>040-048>060-102>105-011400-
NORTHEAST KANSAS

CITY           SKY/WX    TMP DP  RH WIND       PRES   REMARKS
CONCORDIA      PTCLDY    47  47 100 E3        30.13S
EMPORIA        PTCLDY    50  50 100 W5        30.13R
LAWRENCE       FOG       48  48 100 CALM      30.14R VSB 1/4
MANHATTAN      PTCLDY    50  49  96 CALM      30.13S
OLATHE IND     CLEAR     52  52 100 NE5       30.14R FOG
OLATHE EXE     CLEAR     52  51  97 CALM      30.13S
SALINA         MOCLDY    51  48  89 CALM      30.13S
TOPEKA BILLARD PTCLDY    51  49  92 CALM      30.14R FOG
TOPEKA FORBES  FOG       52  51  97 CALM      30.13S VSB 1/8
$$



USA.gov is the U.S. government's official web portal to all federal, state and local government web resources and services.